Weather observations for the past three days for
Brookings, Brookings Airport
Imperial (Metric)
Date Time (pdt) Wind (mph) Vis. (mi.) Weather Sky Cond. Temperature (ºF) Relative Humidity Wind Chill (°F) Heat Index (°F) Pressure Precipitation (in)
Air Dwpt 6 hour altimeter (in) sea level (mb) 1 hr 3 hr 6 hr
Max. Min.
07 12:56 Vrbl 5 10.00 Overcast OVC008 54 50 87% 30.13 1020.4
07 11:56 Vrbl 3 10.00 Overcast OVC006 54 50 87% 30.13 1020.3
07 10:56 Vrbl 3 10.00 Overcast OVC006 52 50 53.1 48.9 93% 30.13 1020.5
07 09:56 Vrbl 3 10.00 Overcast OVC004 51.1 48.9 92% 30.13 1020.4
07 08:56 S 5 9.00 Overcast OVC004 50 48.9 96% 49 30.13 1020.4
07 07:56 Vrbl 6 10.00 Overcast OVC004 50 48.9 96% 48 30.12 1020.1
07 06:56 SE 5 9.00 Overcast OVC004 48.9 48 97% 48 30.11 1019.9
07 05:56 SE 5 10.00 Overcast OVC004 50 48.9 96% 49 30.11 1019.7
07 04:56 SE 3 7.00 Overcast OVC004 50 48.9 51.1 50 96% 30.11 1019.7
07 03:56 SE 3 8.00 Overcast OVC002 50 50 100% 30.12 1020.1
07 02:56 S 3 6.00 Fog/Mist BKN003 OVC008 51.1 50 96% 30.13 1020.4
07 01:56 Calm 4.00 Fog/Mist OVC004 51.1 51.1 100% 30.15 1021.0
07 00:56 Calm 10.00 Overcast OVC008 51.1 50 96% 30.15 1021.1
06 23:56 NW 3 3.00 Fog/Mist OVC008 51.1 51.1 100% 30.16 1021.3
06 22:56 NW 5 2.00 Fog/Mist OVC005 51.1 51.1 53.1 51.1 100% 30.17 1021.7
06 21:56 NW 3 10.00 Overcast OVC007 52 51.1 97% 30.17 1021.9
06 20:56 NW 3 10.00 Overcast OVC007 52 50 93% 30.17 1021.8
06 19:56 NW 5 10.00 Overcast OVC007 52 50 93% 30.17 1021.8
06 18:56 NW 6 10.00 Overcast OVC005 53.1 50 89% 30.18 1022.2
06 17:56 NW 9 9.00 Overcast OVC005 53.1 50 89% 30.2 1022.6
06 16:56 NW 8 7.00 Overcast OVC007 53.1 50 55.9 53.1 89% 30.2 1022.9
06 15:56 NW 9 10.00 Overcast OVC011 54 50 87% 30.2 1022.8
06 14:56 NW 7 10.00 Overcast OVC011 54 50 87% 30.21 1023.1
06 13:56 Vrbl 7 10.00 Overcast OVC013 55 48.9 80% 30.21 1023.2
06 12:56 W 7 10.00 Overcast OVC013 55 48 77% 30.21 1023.0
06 11:56 Vrbl 5 10.00 Overcast OVC013 55 48.9 80% 30.21 1023.0
06 10:56 W 5 10.00 Overcast FEW007 OVC015 53.1 50 53.1 50 89% 30.21 1023.0 0.01
06 09:56 Calm 10.00 Overcast BKN005 OVC015 52 51.1 97% 30.2 1022.7
06 08:56 Vrbl 3 10.00 Overcast BKN003 OVC013 52 51.1 97% 30.19 1022.5
06 07:56 Calm 10.00 Overcast FEW003 OVC016 52 51.1 97% 30.18 1021.9 0.01
06 06:56 NW 3 5.00 Fog/Mist OVC003 50 50 100% 30.17 1021.8
06 05:56 W 3 1.25 Light Rain Fog/Mist OVC003 50 50 100% 30.16 1021.5 0.01
06 04:56 Calm 2.00 Light Rain Fog/Mist OVC003 50 50 52 50 100% 30.15 1021.1 0.01
06 03:56 Calm 1.75 Light Rain Fog/Mist OVC003 51.1 51.1 100% 30.13 1020.4 0.01
06 02:56 Calm 2.50 Fog/Mist OVC003 51.1 50 96% 30.12 1020.0
06 01:56 W 3 3.00 Fog/Mist OVC003 51.1 51.1 100% 30.11 1019.6
06 00:56 Calm 2.00 Fog/Mist BKN003 OVC009 51.1 51.1 100% 30.11 1019.5
05 23:56 Vrbl 3 2.50 Fog/Mist BKN003 OVC012 51.1 51.1 100% 30.09 1019.0
05 22:56 NW 3 5.00 Fog/Mist OVC010 52 51.1 55.9 51.1 97% 30.09 1018.8
05 21:56 Calm 4.00 Fog/Mist OVC008 52 51.1 97% 30.08 1018.7
05 20:56 Calm 8.00 Overcast OVC012 53.1 50 89% 30.07 1018.2
05 19:56 NW 5 10.00 Overcast OVC012 53.1 50 89% 30.04 1017.4
05 18:56 NW 3 10.00 Overcast OVC012 55 50 83% 30.03 1017.1
05 17:56 NW 7 10.00 Overcast OVC014 55 50 83% 30.03 1016.8
05 16:56 NW 7 10.00 Overcast OVC014 55.9 50 59 55 81% 30.03 1016.8
05 15:56 Vrbl 6 10.00 Overcast OVC014 57 50 78% 30.03 1017.0
05 14:56 W 9 10.00 Overcast OVC018 57 48.9 74% 30.03 1017.0
05 13:56 Vrbl 7 10.00 Overcast OVC020 59 48.9 69% 30.03 1016.9
05 12:56 W 8 10.00 Overcast OVC018 59 48.9 69% 30.04 1017.2
05 11:56 Vrbl 5 10.00 Overcast OVC018 55.9 48 75% 30.04 1017.1
05 10:56 SW 5 10.00 Overcast OVC018 55 48 55.9 52 77% 30.03 1016.8
05 09:56 SW 3 10.00 Overcast OVC018 55 48.9 80% 30.02 1016.7
05 08:56 Calm 10.00 Overcast OVC018 54 48 80% 30.02 1016.5
05 07:56 Calm 10.00 Overcast OVC020 53.1 48.9 86% 30.01 1016.3
05 06:56 Calm 10.00 Overcast OVC020 53.1 50 89% 30.01 1016.1
05 05:56 Calm 10.00 Overcast OVC020 53.1 50 89% 30 1015.9
05 04:56 Calm 10.00 Overcast OVC022 53.1 50 54 52 89% 29.99 1015.6
05 03:56 Calm 10.00 Overcast OVC022 53.1 50 89% 29.99 1015.4
05 02:56 Calm 10.00 Overcast OVC022 53.1 50 89% 29.99 1015.5
05 01:56 Calm 10.00 Overcast OVC024 53.1 50 89% 30 1015.9
05 00:56 Calm 10.00 Overcast OVC022 53.1 50 89% 30.01 1016.2
04 23:56 Calm 10.00 Overcast FEW014 OVC022 53.1 51.1 93% 30.01 1016.2
04 22:56 SE 3 10.00 Overcast BKN020 OVC028 54 51.1 57 53.1 90% 30.01 1016.2
04 21:56 Calm 10.00 Overcast OVC022 53.1 50 89% 30.01 1016.3
04 20:56 Calm 10.00 Overcast OVC022 54 51.1 90% 30 1015.9
04 19:56 S 5 10.00 Overcast BKN005 OVC024 54 52 93% 29.98 1015.3
04 18:56 Calm 10.00 Overcast OVC024 55 51.1 87% 29.98 1015.4
04 17:56 SW 5 10.00 Overcast OVC024 55.9 51.1 84% 29.99 1015.5
04 16:56 SW 3 10.00 Overcast OVC024 57 48.9 59 53.1 74% 29.99 1015.5
04 15:56 Vrbl 3 10.00 Overcast FEW017 OVC024 57.9 50 75% 30 1015.7
04 14:56 SE 7 10.00 Overcast SCT015 OVC024 57.9 50 75% 30.01 1016.1
04 13:56 S 7 10.00 Overcast BKN011 OVC024 57 51.1 81% 30.01 1016.4
Date Time (pdt) Wind (mph) Vis. (mi.) Weather Sky Cond. Air Dwpt Max. Min. Relative Humidity Wind Chill (°F) Heat Index (°F) altimeter (in) sea level (mb) 1 hr 3 hr 6 hr
6 hour
Temperature (ºF) Pressure Precipitation (in)